User: anonymous   Login
Location: Bouillancy
(49.1149°N, 2.9308°E)
Time: 06:24:25
(UTC+00:00)
Language:

Okean 1 Rocket - Orbit

View from above orbital plane
View from above orbital plane
View from above satellite
View from above satellite

Ground track
Ground track

The orbit data is extracted from the following two-line orbital elements,

1 19275U 88056B   20338.93976055  .00000129  00000-0  12970-4 0  9996
2 19275  82.5174 226.3462 0020101   1.7855 358.3427 14.82767884750816
Epoch (UTC): 03 December 2020 22:33:15
Eccentricity: 0.0020101
inclination: 82.5174°
perigee height: 606 km
apogee height: 634 km
right ascension of ascending node: 226.3462°
argument of perigee: 1.7855°
revolutions per day: 14.82767884
mean anomaly at epoch: 358.3427°
orbit number at epoch: 75081

The dashed part of the orbit path shows where the satellite is in the earth's shadow,  

DLR